Location: Castromenio
(41.7667°N, 12.6500°E)
Time: 12:58:40
(UTC+00:00)

Daily predictions for brighter satellites

Satellite Brightness Start Highest point End
(mag) Time Altitude Azimuth Time Altitude Azimuth Time Altitude Azimuth
BREEZE-M DEB (TANK) 2.0 17:36:06 10° WNW 17:38:13 67° SSW 17:42:37 10° SE
Meteor 2-9 Rocket 4.5 17:37:19 10° SSE 17:42:53 50° E 17:48:21 10° NNE
SL-16 R/B 4.0 17:41:51 10° NW 17:46:58 36° WSW 17:52:04 10° S
ATLAS 2AS CENTAUR R/B 3.5 17:40:00 10° NNW 17:47:16 41° NE 17:53:58 10° ESE
Okean 2 3.6 17:43:16 10° N 17:47:22 79° W 17:51:28 10° S
Cosmos 1833 4.4 17:42:27 10° SSW 17:48:10 79° WNW 17:53:52 10° NNE
Lacrosse 4 Rocket 2.9 17:44:58 10° NW 17:48:45 38° WSW 17:52:30 10° S
Cosmos 1842 3.6 17:44:58 10° N 17:48:49 46° E 17:52:36 10° SSE
BREEZE-M DEB (TANK) 1.8 17:46:34 10° WNW 17:48:52 67° SW 17:51:13 10° SE
Cosmos 405 3.0 17:46:44 10° N 17:50:14 88° W 17:53:44 10° S
Cosmos 2297 Rocket 3.9 17:49:49 10° ESE 17:50:58 11° E 17:52:06 10° E
COSMO-SKYMED 1 4.3 17:53:10 10° N 17:57:13 38° WNW 18:01:13 10° SW
Cosmos 2151 Rocket 3.5 17:53:19 10° S 17:57:43 82° E 18:02:08 10° N
H-2A R/B 3.4 17:54:58 10° ESE 17:58:17 18° ENE 18:01:38 10° NNE
Cosmos 1300 Rocket 3.5 17:56:46 10° S 18:01:05 89° WNW 18:05:25 10° N
Cosmos 2251 Rocket 3.5 17:57:29 10° NNW 18:02:53 72° ENE 18:08:14 10° SSE
Cosmos 2074 Rocket 4.0 17:58:37 10° N 18:04:53 75° E 18:11:05 10° SSE
Cosmos 1461 2.7 18:02:44 10° SSW 18:06:46 78° ESE 18:10:44 10° NE
Cosmos 1544 3.3 18:04:42 10° SSE 18:08:07 44° E 18:11:34 10° NNE
Cosmos 2333 Rocket 2.5 18:03:58 10° NNW 18:09:31 51° ENE 18:15:04 10° SE
CZ-4 R/B 3.6 18:07:02 10° SSW 18:10:23 28° W 18:13:47 10° NW
ASTEX 1 3.8 18:08:30 10° NNE 18:13:06 39° E 18:17:39 10° SSE
GEOS 3 Rocket 3.5 18:08:57 10° SE 18:14:04 81° NE 18:19:11 10° NW
SAR-Lupe-2 3.6 18:11:12 10° NNE 18:14:43 53° E 18:18:12 10° S
COSMOS 2455 2.9 18:13:40 10° NNW 18:19:43 82° WSW 18:25:43 10° SSE
FREGAT/IRIS 2.4 18:19:08 14° SSE 18:21:23 55° ENE 18:24:08 10° N
Cosmos 2237 Rocket 3.3 18:17:13 10° N 18:22:00 27° NE 18:24:48 19° E
Cosmos 1441 Rocket 3.1 18:18:42 10° S 18:22:30 69° E 18:26:17 10° NNE
Cosmos 2154 Rocket 4.0 18:20:07 10° N 18:26:18 66° E 18:32:27 10° SSE
Cosmos 389 Rocket 3.5 18:30:15 10° NNE 18:33:05 25° ENE 18:33:05 25° ENE
SL-8 R/B 4.4 18:32:14 10° W 18:36:55 53° NNW 18:40:56 14° ENE
ISS -1.4 18:36:52 10° S 18:37:18 12° S 18:37:18 12° S
SJ-6B 2.9 18:37:29 20° SSE 18:40:10 60° ENE 18:44:14 10° N
Resurs 1-3 4.5 18:39:28 27° E 18:40:17 29° ENE 18:44:06 10° N
CZ-2C R/B 4.1 18:39:02 24° E 18:40:25 27° ENE 18:44:54 10° N
MOS 1 4.4 18:35:45 10° SSE 18:41:28 82° WSW 18:47:12 10° NNW
Ariane Rocket 4.0 18:37:16 10° S 18:42:08 48° W 18:47:03 10° NNW
Resurs 01 Rocket 2.8 18:42:03 24° ENE 18:42:20 24° ENE 18:45:55 10° NNE
Okean 1 Rocket 3.2 18:38:38 10° SSW 18:42:58 75° W 18:47:19 10° N
Aureole 1 Rocket 3.4 18:37:48 10° NNW 18:42:59 67° WSW 18:46:29 13° S
Cosmos 1707 2.6 18:42:25 10° N 18:46:20 69° E 18:48:16 28° SSE
Meteor 1-4 Rocket 3.7 18:45:26 10° NNE 18:47:52 27° NE 18:47:52 27° NE
Cosmos 2056 Rocket 3.9 18:43:42 10° S 18:48:46 42° ESE 18:53:52 10° NNE
USA 186 1.8 18:48:19 28° S 18:49:59 84° WSW 18:53:25 10° NNW
SL-16 R/B 3.7 18:46:58 10° N 18:50:55 19° NE 18:51:54 18° ENE
GP-B 4.4 18:48:03 10° NNW 18:52:14 42° W 18:56:25 10° SSW
NOSS 3-4 (A) 3.9 18:47:50 10° NNW 18:54:52 67° NE 18:59:02 29° SE
NOSS 3-4 (C) 3.9 18:47:56 10° NNW 18:54:58 67° NE 18:59:07 29° SE
Cosmos 407 Rocket 3.7 18:52:02 10° N 18:57:01 49° ENE 18:58:21 39° ESE
COSMOS 2428 3.0 18:54:47 10° NNW 19:00:25 64° WSW 19:04:55 16° S
Cosmos 2219 Rocket 2.5 18:55:13 10° NNW 19:00:46 65° WSW 19:05:02 17° S
Cosmos 614 Rocket 4.2 18:55:42 10° N 19:00:47 51° ENE 19:02:02 42° ESE
Cosmos 1624 Rocket 4.0 18:56:02 10° S 19:01:06 56° ESE 19:06:11 10° NNE
SPOT 3 Rocket 3.6 19:01:51 18° S 19:05:43 80° WSW 19:10:54 10° NNW
Meteor 1-15 Rocket 4.2 19:08:26 10° S 19:14:10 87° W 19:20:03 10° N
CZ-2C R/B 4.4 19:12:42 10° NE 19:14:19 17° NE 19:14:19 17° NE
Spot 2 Rocket 4.3 19:20:07 35° NE 19:20:07 35° NE 19:24:06 10° N
Cosmos 1892 Rocket 3.4 19:15:47 10° N 19:20:16 89° E 19:20:44 71° S
Cosmos 2219 3.3 19:15:51 10° SSW 19:21:36 77° WNW 19:27:22 10° NNE
Okean 1-7 Rocket 3.5 19:17:35 10° N 19:22:03 85° W 19:22:38 67° S
Cosmos 2227 Rocket 2.1 19:17:23 10° S 19:22:57 65° ESE 19:28:35 10° NNE
NOSS 0 Rocket 4.0 19:17:38 10° NNW 19:23:51 76° WSW 19:26:27 37° S
Cosmos 1140 Rocket 3.5 19:22:01 10° NNW 19:27:07 60° ENE 19:27:07 60° ENE
ADEOS Rocket 3.5 19:20:59 10° NNE 19:28:19 88° WNW 19:36:06 10° SSW
Cosmos 1371 Rocket 4.3 19:26:18 10° SSW 19:31:33 68° WNW 19:36:54 10° NNE
ARGOS 3.4 19:31:11 36° S 19:33:21 66° WSW 19:38:43 10° NNW
Cosmos 2297 Rocket 2.0 19:28:24 10° SSW 19:34:03 84° ESE 19:39:45 10° NNE
H-2A R/B 2.5 19:35:31 36° SSW 19:37:16 54° W 19:42:10 10° NNW
ATLAS 2AS CENTAUR R/B 3.5 19:31:11 10° NW 19:38:24 50° WSW 19:41:52 28° S
Cosmos 405 Rocket 4.0 19:40:22 37° NW 19:40:22 37° NW 19:43:06 10° N
Cosmos 676 Rocket 4.2 19:43:29 10° NNW 19:48:04 65° N 19:48:04 65° N
Meteor 1-24 Rocket 3.7 19:43:10 10° N 19:48:38 72° NE 19:48:38 72° NE
Cosmos 2181 Rocket 4.4 19:43:40 10° SSW 19:49:47 60° W 19:56:03 10° N
SL-08 R/B 4.4 19:45:11 10° N 19:51:41 73° E 19:51:45 73° E
Cosmos 2333 Rocket 4.2 19:49:00 10° NW 19:53:24 23° WSW 19:57:13 12° SSW
MetOp-A 4.4 19:57:57 59° WSW 19:58:18 60° W 20:03:37 10° NNW
FALCON 9 R/B 4.4 19:14:47 10° W 19:59:46 63° SSW 20:04:37 46° SE
Cosmos 1455 Rocket 4.3 20:00:39 40° WNW 20:00:39 40° WNW 20:04:48 10° N
Meteor 2-5 Rocket 4.1 19:57:16 10° NNW 20:03:00 62° W 20:03:38 58° SW
Cosmos 2237 Rocket 2.8 20:00:50 10° NW 20:06:18 48° WSW 20:06:38 48° WSW
Resurs 01 Rocket 3.4 20:19:38 29° WNW 20:19:38 29° WNW 20:22:39 10° NNW
CZ-2C R/B 4.2 20:20:06 39° W 20:20:06 39° W 20:25:05 10° NNW
SL-16 R/B 3.2 20:29:58 10° NNW 20:33:46 43° NW 20:33:46 43° NW
USA 234 4.5 20:57:41 32° NNE 20:57:41 32° NNE 21:03:17 10° NW
CZ-2C R/B 4.2 20:52:30 10° N 20:55:49 32° NNW 20:55:49 32° NNW
Terra 4.5 21:02:05 15° N 21:02:05 15° N 21:02:53 10° N
Cosmos 2227 Rocket 4.4 21:03:18 10° W 21:07:30 21° NW 21:11:44 10° N
